COSMOS 2154

Satellite information

Favourite Embed

Satellite Type and Status

PAYLOADIN ORBIT

Key statistics

Satellite COSMOS 2154 at a glance.

Uptime

12435

Days in orbit

Revolutions

≈ 13.7

Per day

Orbit

LEO

Low Earth Orbit

Inclination

82.9

Latest

Satellite identification and parameters

Extended collection of information and parameters for COSMOS 2154.

Object identification

Identified? True

Debris? False

Object name: COSMOS 2154

International designator: 1991-059A

Object number (NORAD): 21666

Object ID (CCSDS): 21666

Country: COMMONWEALTH OF INDEPENDENT STATES (CIS)

Current information (Y/N): Y

RCS size: LARGE

Orbital parameters

Period: 104.841 minutes

Inclination: 82.909 deg

SMA: 7365.132 km

Apoapsis: 1004.456 km

Periapsis: 969.538 km

RAAN: 319.7404 deg

Eccentricy: 0.00237047

Argument of periapsis: 280.5957 deg

Mean anomaly: 253.7729 deg

Mean motion: 13.73510432 rev/day

Mean motion (dot): 0.00000082 rev/day2

B* drag term: 0.000071970111 1/REarth

Two-line elements (TLE)

Creation date: Sept. 7, 2025, 3:09 a.m.

Reference frame: TEME

Reference center: EARTH

Epoch: Sept. 6, 2025, 10:45 p.m. UTC

TLE line 0: 0 COSMOS 2154

TLE line 1: 1 21666U 91059A 25249.94831899 .00000082 00000-0 71970-4 0 9996

TLE line 2: 2 21666 82.9090 319.7404 0023705 280.5957 253.7729 13.73510432705952

Live tracking on map

Real-time ground track for satellite COSMOS 2154.

In-orbit conjunctions

A list of the most updated potential collisions computed for object COSMOS 2154.

Target Orbit TCA Probability of collision Miss distance Type
FENGYUN 1C DEB SSO 2024-11-16 07:11:05 0.0001872727 632.0 (m) DEBRIS

Associated space launch

Navigation satellite providing location information for the Tsiklon-B navigation system

COSMOS 2154 was lifted into orbit during the mission ‘Kosmos-3M | Parus 73’, on board a Kosmos-3M space rocket.

The launch took place on Aug. 22, 1991, 12:35 p.m. from 132/1 (132L).

For more information about the launch, click the button.

Launch to space Kosmos-3M | Parus 73
Kosmos-3M | Parus 73

Agency: N/A

Status: Launch Successful

Launch date: Aug. 22, 1991, 12:35 p.m. UTC

Rocket: Kosmos-3M

Launch pad: 132/1 (132L)

Location: Plesetsk Cosmodrome, Russian Federation

...

Latest news about this satellite

There are no fresh news available about this satellite. Check back as we update our databases every day.


Newsletter sign-up

Weekly statistics, charts and insights to help you stay on top of the space industry.